Regional Weather Roundup
Issued by NWS

Home | Current Version | Previous Version | Graphics & Text | Print | Product List | Glossary On
Versions: 1 2 3 4 5 6 7 8 9 10 11 12 13 14 15 16 17 18 19 20 21 22 23 24 25 26 27 28 29 30 31 32 33 34 35 36 37 38 39 40 41 42 43 44 45 46 47 48 49 50
000
ASUS43 KMKX 220321
RWRWI

WISCONSIN REGIONAL WEATHER ROUNDUP
NATIONAL WEATHER SERVICE MILWAUKEE/SULLIVAN WI
900 PM CST SUN DEC 21 2014

NOTE: "FAIR" INDICATES FEW OR NO CLOUDS BELOW 12,000 FEET WITH NO
SIGNIFICANT WEATHER AND/OR OBSTRUCTIONS TO VISIBILITY.

WIZ001-002-006>008-014>016-023>028-220400-
NORTHWEST WISCONSIN

CITY           SKY/WX    TMP DP  RH WIND       PRES   REMARKS
SUPERIOR ARPT  CLOUDY    35  33  94 S3        29.75S
ASHLAND        CLOUDY    34  33  96 CALM      29.79S
HAYWARD        FLURRIES  34  32  92 S5        29.77S WCI  30
SIREN          CLOUDY    35  34  99 S7        29.75S FOG     WCI  29
CUMBERLAND     DRIZZLE   34  32  93 S8        29.76F WCI  27
RICE LAKE      DRIZZLE   34  34  98 SE6       29.79S WCI  29
CHETEK         LGT RAIN  35  34  99 SE6       29.78S WCI  30
LADYSMITH      LGT RAIN  35  34  97 S9        29.81S WCI  27
EAU CLAIRE     CLOUDY    37  35  92 S8        29.79F WCI  31
MENOMONIE      DRIZZLE   38  37  94 SE6       29.79S WCI  34
NEW RICHMOND   LGT RAIN  36  36 100 S9        29.75F WCI  29
OSCEOLA        RAIN      37  37 100 SE10      29.77F WCI  29
$$

WIZ003>005-009-010-017-018-220400-
NORTH CENTRAL WISCONSIN

CITY           SKY/WX    TMP DP  RH WIND       PRES   REMARKS
MANITOWISH WTR LGT SNOW  32  32 100 S8        29.81S WCI  25
ARBOR VITAE    LGT SNOW  34  32  93 S8G17     29.81F WCI  27
WOODRUFF       LGT SNOW  34  32  93 S8G17     29.81F WCI  27
RHINELANDER    LGT SNOW  32  30  92 S10       29.84S FOG     WCI  24
EAGLE RIVER    LGT SNOW  32  32 100 S7        29.83S WCI  26
LAND O LAKES   LGT SNOW  33  32  98 S8        29.84S WCI  25
PHILLIPS       FLURRIES  33  32  97 S13       29.80S WCI  23
TOMAHAWK       LGT RAIN  32  31  98 CALM      29.84S
MEDFORD        CLOUDY    32  32  99 SE14      29.82F FOG     WCI  22
MERRILL        LGT SNOW  33  33 100 S7        29.86S WCI  27
$$

WIZ029-030-035-036-043>047-220400-
CENTRAL WISCONSIN

CITY           SKY/WX    TMP DP  RH WIND       PRES   REMARKS
WAUSAU         CLOUDY    34  32  92 S16       29.86F FOG     WCI  24
MOSINEE        CLOUDY    34  34 100 SE14G21   29.82F FOG     WCI  24
MARSHFIELD     MIX PCPN  35  33  92 S13       29.85S FOG     WCI  26
STEVENS POINT  LGT RAIN  32  32  99 S10G18    29.90S WCI  24
WAUPACA        CLOUDY    37  32  83 S13       29.94S WCI  28
WAUTOMA        CLOUDY    36  33  88 S15G21    29.94F WCI  27
WISC RAPIDS    CLOUDY    35  32  88 S10G20    29.90S FOG     WCI  27
CAMP DOUGLAS   CLOUDY    36  36 100 SE12      29.88F WCI  28
$$

WIZ011>013-019>022-031-037>040-048>050-220400-
NORTHEAST WISCONSIN

CITY           SKY/WX    TMP DP  RH WIND       PRES   REMARKS
ANTIGO         CLOUDY    32  32 100 S13       29.88S FOG     WCI  22
SHAWANO        CLOUDY    37  32  82 S9        29.95S WCI  30
OCONTO         CLOUDY    35  32  90 S9        29.98F WCI  27
STURGEON BAY   CLOUDY    36  32  87 S16G23    30.01F WCI  26
GREEN BAY      CLOUDY    36  30  79 S20       29.97F WCI  25
MANITOWOC      CLOUDY    37  34  89 S18       30.02F WCI  27
APPLETON       CLOUDY    34  30  86 S14       29.96F WCI  24
CLINTONVILLE   CLOUDY    34  32  93 S10       29.94S WCI  26
OSHKOSH        CLOUDY    35  29  78 S13       29.96F WCI  26
$$

WIZ032>034-041-042-053>061-220400-
SOUTHWEST WISCONSIN

CITY           SKY/WX    TMP DP  RH WIND       PRES   REMARKS
LA CROSSE      CLOUDY    39  35  86 S18G28    29.83F WCI  30
SPARTA         CLOUDY    37  33  87 S15       29.86F WCI  28
VIROQUA        CLOUDY    34  34 100 S17G23    29.85F WCI  24
BOSCOBEL       CLOUDY    37  32  82 S10       29.91S WCI  30
PRAIRIE DU CHI CLOUDY    37  32  84 SE8       29.89S WCI  30
PLATTEVILLE    CLOUDY    35  32  90 SE15G23   29.93S WCI  25
$$

WIZ056-057-062-063-064-067-068-220400-
SOUTH CENTRAL WISCONSIN

CITY           SKY/WX    TMP DP  RH WIND       PRES   REMARKS
REEDSBURG      CLOUDY    35  32  87 S9G17     29.91F WCI  28
BARABOO/DELLS  CLOUDY    35  31  86 S20G28    29.91S WCI  24
LONE ROCK      CLOUDY    40  31  70 S9        29.94S WCI  34
MINERAL POINT  CLOUDY    36  32  87 SE16G22   29.92S WCI  26
MADISON        CLOUDY    35  30  82 S15       29.96S WCI  25
MIDDLETON      CLOUDY    37  32  82 S12       29.96S WCI  29
WATERTOWN      CLOUDY    35  31  87 S12G18    29.98S WCI  26
MONROE         CLOUDY    34  32  93 S15       29.95F WCI  24
JANESVILLE     CLOUDY    36  32  87 S15       29.98S WCI  26
$$

WIZ051-052-058>065-066-070>072-220400-
SOUTHEAST WISCONSIN

CITY           SKY/WX    TMP DP  RH WIND       PRES   REMARKS
MILWAUKEE      CLOUDY    36  29  75 S14       30.03F WCI  27
WAUKESHA       CLOUDY    32  28  86 SE10G18   30.02S WCI  24
MILWAUKEE/TIMM CLOUDY    34  28  80 SE10G16   30.03F WCI  26
RACINE         CLOUDY    37  30  75 S14G24    30.05F WCI  28
BURLINGTON     CLOUDY    33  29  85 SE12      30.01F WCI  24
KENOSHA        CLOUDY    36  30  79 SE15G23   30.03F WCI  27
FOND DU LAC    CLOUDY    35  29  78 S14       29.97F WCI  26
SHEBOYGAN      CLOUDY    35  30  82 S16       30.02F WCI  25
WEST BEND      CLOUDY    34  28  80 SE10      30.00F WCI  26
JUNEAU         CLOUDY    34  30  86 SE15      29.98S WCI  24
$$

LSZ147-162-220400-
LAKE SUPERIOR

STATION/POSITION TIME  TEMP    WIND        PRES    WAVE
                       AIR SEA DIR/SP/G            HT/PER
                 (UTC) (F)     (DEG/KT/KT) (MB)    (FT/S)
DEVILS ISLAND    0300   34     150/ 11/ 15 1009.4F
PORT WING        0240   36     160/  6/  8 1008.5F
SAXON HARBOR     0200   37     180/  3/  7 1009.1F
$$

LMZ867-665-643>646-220400-
LAKE MICHIGAN

STATION/POSITION TIME  TEMP    WIND        PRES    WAVE
                       AIR SEA DIR/SP/G            HT/PER
                 (UTC) (F)     (DEG/KT/KT) (MB)    (FT/S)
CHAMBERS ISLAND  0200   37     150/  8/ 14 1015.9F
NORTHPORT PIER   0200   36     150/ 13/ 21 1016.6F
SISTER BAY       0228          140/ 14/ 19   N/A
ALGOMA LAKESHORE 0215          220/ 23/ 28   N/A
KEWAUNEE LAKESHO 0200   37     180/ 18/ 21 1016.1S
SHEBOYGAN LAKESH 0300   38 36  180/ 25/ 27 1017.1F
PORT WASHINGTON  0200   37     180/ 14/ 21 1017.9
MILWAUKEE LAKESH 0300   37     170/ 15/ 17   N/A
KENOSHA   LAKESH 0300   36     170/ 19/ 23 1017.3S
$$

TC  - TEMPERATURE IN CELSIUS
VSB - VISIBILITY IN STATUTE MILES
WCI - WIND CHILL INDEX
HX  - HEAT INDEX




USA.gov is the U.S. government's official web portal to all federal, state and local government web resources and services.